| time (UTC) | temp C | wind direction | speed KPH | gust KPH | rain 1hr cm | rain 24hr cm | rain mn cm | humidity % | barometer mb |
| 20260508192137 | 22 | 210 | 4.8 | 14.5 | 0.00 | 0.00 | 0.00 | 27 | 1017.8 |
| 20260508191618 | 22 | 307 | 3.2 | 12.9 | 0.00 | 0.00 | 0.00 | 27 | 1017.9 |
| 20260508191118 | 22 | 212 | 6.4 | 12.9 | 0.00 | 0.00 | 0.00 | 27 | 1017.9 |
| 20260508190625 | 22 | 287 | 3.2 | 12.9 | 0.00 | 0.00 | 0.00 | 28 | 1017.9 |
| 20260508190125 | 22 | 268 | 3.2 | 17.7 | 0.00 | 0.00 | 0.00 | 27 | 1018.0 |
| 20260508185632 | 22 | 278 | 8.0 | 17.7 | 0.00 | 0.00 | 0.00 | 26 | 1018.1 |
| 20260508185136 | 22 | 226 | 6.4 | 17.7 | 0.00 | 0.00 | 0.00 | 27 | 1018.1 |
| 20260508184616 | 22 | 243 | 4.8 | 17.7 | 0.00 | 0.00 | 0.00 | 27 | 1018.1 |
| 20260508184137 | 21 | 267 | 4.8 | 14.5 | 0.00 | 0.00 | 0.00 | 25 | 1018.1 |
| 20260508183644 | 22 | 311 | 4.8 | 9.7 | 0.00 | 0.00 | 0.00 | 27 | 1018.2 |
| 20260508183123 | 21 | 261 | 1.6 | 8.0 | 0.00 | 0.00 | 0.00 | 25 | 1018.2 |
| 20260508182632 | 21 | 262 | 3.2 | 9.7 | 0.00 | 0.00 | 0.00 | 26 | 1018.3 |
| 20260508182112 | 21 | 311 | 1.6 | 11.3 | 0.00 | 0.00 | 0.00 | 27 | 1018.3 |
| 20260508181639 | 21 | 255 | 3.2 | 17.7 | 0.00 | 0.00 | 0.00 | 29 | 1018.4 |
| 20260508181119 | 21 | 266 | 8.0 | 17.7 | 0.00 | 0.00 | 0.00 | 27 | 1018.4 |
| 20260508180620 | 21 | 302 | 4.8 | 19.3 | 0.00 | 0.00 | 0.00 | 27 | 1018.4 |
| 20260508180148 | 21 | 282 | 8.0 | 19.3 | 0.00 | 0.00 | 0.00 | 28 | 1018.5 |
| 20260508175636 | 21 | 288 | 4.8 | 9.7 | 0.00 | 0.00 | 0.00 | 31 | 1018.4 |
| 20260508175117 | 21 | 250 | 3.2 | 9.7 | 0.00 | 0.00 | 0.00 | 31 | 1018.5 |
| 20260508174618 | 21 | 238 | 4.8 | 9.7 | 0.00 | 0.00 | 0.00 | 31 | 1018.5 |
| 20260508174119 | 21 | 322 | 0.0 | 8.0 | 0.00 | 0.00 | 0.00 | 33 | 1018.5 |
| 20260508173627 | 20 | 297 | 1.6 | 12.9 | 0.00 | 0.00 | 0.00 | 35 | 1018.6 |
| 20260508173128 | 20 | 266 | 6.4 | 14.5 | 0.00 | 0.00 | 0.00 | 33 | 1018.6 |
| 20260508172636 | 21 | 282 | 9.7 | 14.5 | 0.00 | 0.00 | 0.00 | 31 | 1018.5 |
| 20260508172117 | 21 | 285 | 4.8 | 11.3 | 0.00 | 0.00 | 0.00 | 30 | 1018.5 |
| 20260508171616 | 21 | 235 | 1.6 | 14.5 | 0.00 | 0.00 | 0.00 | 30 | 1018.5 |
| 20260508171116 | 21 | 275 | 6.4 | 14.5 | 0.00 | 0.00 | 0.00 | 30 | 1018.5 |
| 20260508170624 | 21 | 279 | 1.6 | 6.4 | 0.00 | 0.00 | 0.00 | 32 | 1018.5 |
| 20260508170124 | 20 | 284 | 0.0 | 6.4 | 0.00 | 0.00 | 0.00 | 30 | 1018.4 |
| 20260508165629 | 20 | 227 | 1.6 | 6.4 | 0.00 | 0.00 | 0.00 | 32 | 1018.4 |
| 20260508165128 | 20 | 310 | 3.2 | 8.0 | 0.00 | 0.00 | 0.00 | 28 | 1018.4 |
| 20260508164635 | 20 | 246 | 1.6 | 8.0 | 0.00 | 0.00 | 0.00 | 30 | 1018.4 |
| 20260508164115 | 20 | 57 | 1.6 | 4.8 | 0.00 | 0.00 | 0.00 | 31 | 1018.4 |
| 20260508163623 | 20 | 288 | 3.2 | 4.8 | 0.00 | 0.00 | 0.00 | 33 | 1018.4 |
| 20260508163123 | 20 | 113 | 1.6 | 6.4 | 0.00 | 0.00 | 0.00 | 33 | 1018.4 |
| 20260508162630 | 20 | 287 | 1.6 | 6.4 | 0.00 | 0.00 | 0.00 | 34 | 1018.3 |
| 20260508162128 | 20 | 288 | 3.2 | 8.0 | 0.00 | 0.00 | 0.00 | 33 | 1018.3 |
| 20260508161629 | 19 | 320 | 4.8 | 8.0 | 0.00 | 0.00 | 0.00 | 34 | 1018.3 |
| 20260508161119 | 20 | 285 | 3.2 | 8.0 | 0.00 | 0.00 | 0.00 | 34 | 1018.3 |
| 20260508160618 | 20 | 288 | 3.2 | 6.4 | 0.00 | 0.00 | 0.00 | 33 | 1018.1 |
| 20260508160146 | 20 | 300 | 3.2 | 6.4 | 0.00 | 0.00 | 0.00 | 35 | 1018.1 |
| 20260508155653 | 19 | 257 | 1.6 | 4.8 | 0.00 | 0.00 | 0.00 | 34 | 1018.1 |
| 20260508155113 | 19 | 303 | 1.6 | 4.8 | 0.00 | 0.00 | 0.00 | 34 | 1018.1 |
| 20260508154613 | 19 | 235 | 1.6 | 4.8 | 0.00 | 0.00 | 0.00 | 32 | 1018.0 |
| 20260508154119 | 19 | 292 | 1.6 | 3.2 | 0.00 | 0.00 | 0.00 | 33 | 1018.0 |
| 20260508153620 | 19 | 270 | 1.6 | 3.2 | 0.00 | 0.00 | 0.00 | 34 | 1018.0 |
| 20260508153149 | 19 | 286 | 1.6 | 3.2 | 0.00 | 0.00 | 0.00 | 34 | 1018.0 |
| 20260508152628 | 19 | 237 | 0.0 | 1.6 | 0.00 | 0.00 | 0.00 | 34 | 1018.0 |
| 20260508152138 | 19 | 237 | 1.6 | 1.6 | 0.00 | 0.00 | 0.00 | 35 | 1017.9 |
| 20260508151617 | 18 | 170 | 0.0 | 1.6 | 0.00 | 0.00 | 0.00 | 36 | 1017.9 |
| 20260508151118 | 18 | 253 | 0.0 | 1.6 | 0.00 | 0.00 | 0.00 | 37 | 1017.9 |
| 20260508150626 | 17 | 253 | 0.0 | 1.6 | 0.00 | 0.00 | 0.00 | 37 | 1017.9 |
| 20260508150127 | 17 | 253 | 0.0 | 1.6 | 0.00 | 0.00 | 0.00 | 39 | 1017.8 |
| 20260508145635 | 17 | 262 | 0.0 | 1.6 | 0.00 | 0.00 | 0.00 | 40 | 1017.7 |
| 20260508145116 | 17 | 58 | 0.0 | 1.6 | 0.00 | 0.00 | 0.00 | 40 | 1017.7 |
| 20260508144616 | 16 | 61 | 0.0 | 1.6 | 0.00 | 0.00 | 0.00 | 39 | 1017.7 |
| 20260508144117 | 16 | 61 | 0.0 | 1.6 | 0.00 | 0.00 | 0.00 | 43 | 1017.7 |
| 20260508143646 | 16 | 61 | 0.0 | 0.0 | 0.00 | 0.00 | 0.00 | 43 | 1017.7 |
| 20260508143133 | 17 | 61 | 0.0 | 0.0 | 0.00 | 0.00 | 0.00 | 41 | 1017.7 |
| 20260508142613 | 17 | 61 | 0.0 | 0.0 | 0.00 | 0.00 | 0.00 | 41 | 1017.7 |
| 20260508142113 | 17 | 61 | 0.0 | 0.0 | 0.00 | 0.00 | 0.00 | 41 | 1017.6 |
| 20260508141616 | 16 | 61 | 0.0 | 0.0 | 0.00 | 0.00 | 0.00 | 41 | 1017.6 |
| 20260508141123 | 16 | 61 | 0.0 | 1.6 | 0.00 | 0.00 | 0.00 | 42 | 1017.5 |
| 20260508140624 | 15 | 61 | 0.0 | 1.6 | 0.00 | 0.00 | 0.00 | 44 | 1017.5 |
| 20260508140151 | 15 | 61 | 0.0 | 1.6 | 0.00 | 0.00 | 0.00 | 44 | 1017.5 |
| 20260508135611 | 14 | 61 | 0.0 | 1.6 | 0.00 | 0.00 | 0.00 | 45 | 1017.4 |
| 20260508135112 | 14 | 61 | 0.0 | 0.0 | 0.00 | 0.00 | 0.00 | 45 | 1017.3 |
| 20260508134621 | 13 | 61 | 0.0 | 1.6 | 0.00 | 0.00 | 0.00 | 48 | 1017.3 |
| 20260508134122 | 13 | 61 | 0.0 | 1.6 | 0.00 | 0.00 | 0.00 | 47 | 1017.3 |
| 20260508133630 | 13 | 61 | 0.0 | 1.6 | 0.00 | 0.00 | 0.00 | 45 | 1017.2 |
| 20260508133111 | 12 | 61 | 0.0 | 1.6 | 0.00 | 0.00 | 0.00 | 44 | 1017.1 |
| 20260508132612 | 12 | 61 | 1.6 | 3.2 | 0.00 | 0.00 | 0.00 | 45 | 1017.0 |
| 20260508132113 | 12 | 61 | 1.6 | 3.2 | 0.00 | 0.00 | 0.00 | 43 | 1017.0 |
| 20260508131620 | 12 | 36 | 0.0 | 3.2 | 0.00 | 0.00 | 0.00 | 44 | 1017.0 |
| 20260508131121 | 12 | 55 | 0.0 | 1.6 | 0.00 | 0.00 | 0.00 | 45 | 1017.0 |
| 20260508130628 | 12 | 56 | 0.0 | 3.2 | 0.00 | 0.00 | 0.00 | 44 | 1016.8 |
| 20260508130129 | 12 | 56 | 1.6 | 3.2 | 0.00 | 0.00 | 0.00 | 45 | 1016.8 |
| 20260508125637 | 12 | 56 | 1.6 | 3.2 | 0.00 | 0.00 | 0.00 | 45 | 1016.8 |
| 20260508125118 | 12 | 1 | 0.0 | 1.6 | 0.00 | 0.00 | 0.00 | 45 | 1016.8 |
| 20260508124618 | 12 | 86 | 0.0 | 1.6 | 0.00 | 0.00 | 0.00 | 46 | 1016.7 |
| 20260508124127 | 12 | 86 | 0.0 | 1.6 | 0.00 | 0.00 | 0.00 | 47 | 1016.5 |
| 20260508123627 | 12 | 87 | 1.6 | 3.2 | 0.00 | 0.00 | 0.00 | 46 | 1016.5 |
| 20260508123129 | 12 | 90 | 1.6 | 3.2 | 0.00 | 0.00 | 0.00 | 47 | 1016.5 |
| 20260508122637 | 12 | 98 | 0.0 | 3.2 | 0.00 | 0.00 | 0.00 | 48 | 1016.5 |
| 20260508122118 | 12 | 94 | 1.6 | 3.2 | 0.00 | 0.00 | 0.00 | 48 | 1016.5 |
| 20260508121620 | 12 | 63 | 0.0 | 1.6 | 0.00 | 0.00 | 0.00 | 48 | 1016.3 |
| 20260508121127 | 12 | 63 | 0.0 | 3.2 | 0.00 | 0.00 | 0.00 | 48 | 1016.3 |
| 20260508120655 | 12 | 76 | 1.6 | 3.2 | 0.00 | 0.00 | 0.00 | 48 | 1016.3 |
| 20260508120113 | 12 | 96 | 1.6 | 3.2 | 0.00 | 0.00 | 0.00 | 49 | 1016.3 |
| 20260508115613 | 12 | 85 | 1.6 | 1.6 | 0.00 | 0.00 | 0.00 | 49 | 1016.3 |
| 20260508115141 | 12 | 85 | 0.0 | 1.6 | 0.00 | 0.00 | 0.00 | 48 | 1016.3 |
| 20260508114624 | 13 | 85 | 1.6 | 1.6 | 0.00 | 0.00 | 0.00 | 46 | 1016.2 |
| 20260508114125 | 13 | 85 | 1.6 | 1.6 | 0.00 | 0.00 | 0.00 | 46 | 1016.1 |
| 20260508113635 | 12 | 89 | 1.6 | 3.2 | 0.00 | 0.00 | 0.00 | 46 | 1016.1 |
| 20260508113115 | 12 | 90 | 1.6 | 3.2 | 0.00 | 0.00 | 0.00 | 48 | 1016.1 |
| 20260508112616 | 12 | 108 | 1.6 | 1.6 | 0.00 | 0.00 | 0.00 | 47 | 1016.2 |
| 20260508112144 | 13 | 119 | 0.0 | 1.6 | 0.00 | 0.00 | 0.00 | 46 | 1016.2 |
| 20260508111624 | 13 | 107 | 1.6 | 1.6 | 0.00 | 0.00 | 0.00 | 46 | 1016.2 |
| 20260508111125 | 13 | 72 | 1.6 | 1.6 | 0.00 | 0.00 | 0.00 | 46 | 1016.2 |
| 20260508110633 | 13 | 73 | 0.0 | 3.2 | 0.00 | 0.00 | 0.00 | 46 | 1016.1 |
| 20260508110113 | 13 | 58 | 0.0 | 3.2 | 0.00 | 0.00 | 0.00 | 46 | 1016.2 |
| 20260508105641 | 13 | 64 | 1.6 | 3.2 | 0.00 | 0.00 | 0.00 | 46 | 1016.2 |
| 20260508105129 | 13 | 72 | 1.6 | 3.2 | 0.00 | 0.00 | 0.00 | 46 | 1016.2 |
| 20260508104629 | 13 | 72 | 1.6 | 1.6 | 0.00 | 0.00 | 0.00 | 45 | 1016.2 |
| 20260508104137 | 12 | 72 | 0.0 | 1.6 | 0.00 | 0.00 | 0.00 | 47 | 1016.1 |
| 20260508103616 | 13 | 72 | 0.0 | 1.6 | 0.00 | 0.00 | 0.00 | 46 | 1016.0 |
| 20260508103117 | 12 | 72 | 0.0 | 1.6 | 0.00 | 0.00 | 0.00 | 47 | 1016.0 |
| 20260508102617 | 12 | 95 | 1.6 | 1.6 | 0.00 | 0.00 | 0.00 | 47 | 1015.9 |
| 20260508102125 | 12 | 62 | 0.0 | 1.6 | 0.00 | 0.00 | 0.00 | 47 | 1015.9 |
| 20260508101626 | 12 | 62 | 0.0 | 1.6 | 0.00 | 0.00 | 0.00 | 47 | 1015.8 |
| 20260508101134 | 12 | 62 | 1.6 | 1.6 | 0.00 | 0.00 | 0.00 | 47 | 1015.8 |
| 20260508100615 | 13 | 62 | 0.0 | 3.2 | 0.00 | 0.00 | 0.00 | 46 | 1015.8 |
| 20260508100143 | 13 | 62 | 1.6 | 3.2 | 0.00 | 0.00 | 0.00 | 45 | 1015.8 |
| 20260508095622 | 12 | 68 | 1.6 | 3.2 | 0.00 | 0.00 | 0.00 | 47 | 1015.8 |
| 20260508095124 | 12 | 90 | 0.0 | 1.6 | 0.00 | 0.00 | 0.00 | 47 | 1015.7 |
| 20260508094632 | 13 | 90 | 0.0 | 3.2 | 0.00 | 0.00 | 0.00 | 46 | 1015.8 |
| 20260508094133 | 13 | 97 | 1.6 | 3.2 | 0.00 | 0.00 | 0.00 | 47 | 1015.7 |
| 20260508093619 | 13 | 122 | 0.0 | 1.6 | 0.00 | 0.00 | 0.00 | 45 | 1015.7 |
| 20260508093119 | 13 | 121 | 0.0 | 1.6 | 0.00 | 0.00 | 0.00 | 45 | 1015.6 |
| 20260508092627 | 13 | 122 | 0.0 | 1.6 | 0.00 | 0.00 | 0.00 | 46 | 1015.6 |
| 20260508092128 | 13 | 122 | 0.0 | 1.6 | 0.00 | 0.00 | 0.00 | 45 | 1015.6 |
| 20260508091629 | 13 | 122 | 0.0 | 1.6 | 0.00 | 0.00 | 0.00 | 44 | 1015.4 |
| 20260508091137 | 13 | 98 | 0.0 | 1.6 | 0.00 | 0.00 | 0.00 | 43 | 1015.4 |
| 20260508090617 | 13 | 62 | 1.6 | 1.6 | 0.00 | 0.00 | 0.00 | 44 | 1015.5 |
| 20260508090118 | 13 | 60 | 0.0 | 3.2 | 0.00 | 0.00 | 0.00 | 45 | 1015.4 |
| 20260508085625 | 13 | 60 | 0.0 | 3.2 | 0.00 | 0.00 | 0.00 | 43 | 1015.5 |
| 20260508085146 | 13 | 84 | 0.0 | 1.6 | 0.00 | 0.00 | 0.00 | 45 | 1015.5 |
| 20260508084632 | 13 | 84 | 0.0 | 1.6 | 0.00 | 0.00 | 0.00 | 44 | 1015.5 |
| 20260508084114 | 14 | 84 | 0.0 | 3.2 | 0.00 | 0.00 | 0.00 | 43 | 1015.6 |
| 20260508083642 | 14 | 84 | 0.0 | 3.2 | 0.00 | 0.00 | 0.00 | 42 | 1015.5 |
| 20260508083121 | 13 | 75 | 0.0 | 3.2 | 0.00 | 0.00 | 0.00 | 44 | 1015.7 |
| 20260508082623 | 14 | 124 | 0.0 | 1.6 | 0.00 | 0.00 | 0.00 | 43 | 1015.6 |
| 20260508082130 | 14 | 63 | 0.0 | 0.0 | 0.00 | 0.00 | 0.00 | 41 | 1015.6 |
| 20260508081611 | 14 | 63 | 0.0 | 1.6 | 0.00 | 0.00 | 0.00 | 42 | 1015.6 |
| 20260508081112 | 14 | 63 | 0.0 | 1.6 | 0.00 | 0.00 | 0.00 | 43 | 1015.5 |
| 20260508080612 | 14 | 63 | 0.0 | 0.0 | 0.00 | 0.00 | 0.00 | 42 | 1015.5 |
| 20260508080121 | 15 | 63 | 0.0 | 1.6 | 0.00 | 0.00 | 0.00 | 41 | 1015.5 |
| 20260508075622 | 15 | 63 | 0.0 | 3.2 | 0.00 | 0.00 | 0.00 | 39 | 1015.5 |
| 20260508075130 | 15 | 69 | 1.6 | 3.2 | 0.00 | 0.00 | 0.00 | 40 | 1015.5 |
| 20260508074637 | 15 | 75 | 1.6 | 3.2 | 0.00 | 0.00 | 0.00 | 39 | 1015.5 |
| 20260508074118 | 15 | 75 | 1.6 | 3.2 | 0.00 | 0.00 | 0.00 | 39 | 1015.4 |
| 20260508073619 | 15 | 67 | 1.6 | 3.2 | 0.00 | 0.00 | 0.00 | 38 | 1015.5 |
| 20260508073120 | 15 | 58 | 0.0 | 1.6 | 0.00 | 0.00 | 0.00 | 39 | 1015.4 |
| 20260508072627 | 15 | 58 | 1.6 | 1.6 | 0.00 | 0.00 | 0.00 | 39 | 1015.4 |
| 20260508072128 | 15 | 58 | 1.6 | 3.2 | 0.00 | 0.00 | 0.00 | 39 | 1015.4 |
| 20260508071629 | 15 | 60 | 1.6 | 1.6 | 0.00 | 0.00 | 0.00 | 38 | 1015.4 |
| 20260508071136 | 15 | 106 | 0.0 | 1.6 | 0.00 | 0.00 | 0.00 | 39 | 1015.4 |
| 20260508070618 | 15 | 106 | 0.0 | 1.6 | 0.00 | 0.00 | 0.00 | 39 | 1015.3 |
| 20260508070117 | 15 | 107 | 0.0 | 1.6 | 0.00 | 0.00 | 0.00 | 39 | 1015.3 |
| 20260508065645 | 15 | 80 | 0.0 | 1.6 | 0.00 | 0.00 | 0.00 | 39 | 1015.3 |
| 20260508065132 | 15 | 79 | 0.0 | 3.2 | 0.00 | 0.00 | 0.00 | 39 | 1015.2 |
| 20260508064633 | 15 | 79 | 1.6 | 3.2 | 0.00 | 0.00 | 0.00 | 38 | 1015.2 |
| 20260508064113 | 15 | 86 | 1.6 | 3.2 | 0.00 | 0.00 | 0.00 | 38 | 1015.2 |
| 20260508063621 | 16 | 84 | 1.6 | 4.8 | 0.00 | 0.00 | 0.00 | 38 | 1015.3 |
| 20260508063123 | 15 | 83 | 1.6 | 4.8 | 0.00 | 0.00 | 0.00 | 38 | 1015.3 |
| 20260508062651 | 15 | 53 | 1.6 | 3.2 | 0.00 | 0.00 | 0.00 | 39 | 1015.4 |
| 20260508062138 | 15 | 127 | 1.6 | 3.2 | 0.00 | 0.00 | 0.00 | 39 | 1015.3 |
| 20260508061618 | 15 | 103 | 0.0 | 3.2 | 0.00 | 0.00 | 0.00 | 39 | 1015.4 |
| 20260508061120 | 15 | 113 | 1.6 | 3.2 | 0.00 | 0.00 | 0.00 | 39 | 1015.3 |
| 20260508060648 | 15 | 107 | 1.6 | 3.2 | 0.00 | 0.00 | 0.00 | 39 | 1015.2 |
| 20260508060128 | 15 | 93 | 0.0 | 3.2 | 0.00 | 0.00 | 0.00 | 38 | 1015.2 |
| 20260508055636 | 16 | 93 | 0.0 | 3.2 | 0.00 | 0.00 | 0.00 | 37 | 1015.2 |
| 20260508055117 | 16 | 42 | 0.0 | 1.6 | 0.00 | 0.00 | 0.00 | 37 | 1015.1 |
| 20260508054617 | 16 | 63 | 0.0 | 1.6 | 0.00 | 0.00 | 0.00 | 37 | 1015.2 |
| 20260508054153 | 16 | 91 | 0.0 | 3.2 | 0.00 | 0.00 | 0.00 | 37 | 1015.1 |
| 20260508053613 | 16 | 89 | 1.6 | 3.2 | 0.00 | 0.00 | 0.00 | 36 | 1015.0 |
| 20260508053120 | 16 | 108 | 0.0 | 1.6 | 0.00 | 0.00 | 0.00 | 36 | 1015.0 |
| 20260508052620 | 16 | 102 | 0.0 | 1.6 | 0.00 | 0.00 | 0.00 | 37 | 1014.9 |
| 20260508052127 | 15 | 86 | 1.6 | 1.6 | 0.00 | 0.00 | 0.00 | 38 | 1014.9 |
| 20260508051628 | 15 | 69 | 0.0 | 1.6 | 0.00 | 0.00 | 0.00 | 39 | 1014.9 |
| 20260508051129 | 16 | 69 | 0.0 | 1.6 | 0.00 | 0.00 | 0.00 | 38 | 1014.9 |
| 20260508050638 | 16 | 68 | 0.0 | 1.6 | 0.00 | 0.00 | 0.00 | 37 | 1014.9 |
| 20260508050116 | 16 | 68 | 0.0 | 3.2 | 0.00 | 0.00 | 0.00 | 35 | 1014.8 |
| 20260508045617 | 16 | 72 | 1.6 | 1.6 | 0.00 | 0.00 | 0.00 | 35 | 1014.8 |
| 20260508045124 | 16 | 79 | 0.0 | 1.6 | 0.00 | 0.00 | 0.00 | 35 | 1014.8 |
| 20260508044625 | 17 | 95 | 0.0 | 4.8 | 0.00 | 0.00 | 0.00 | 35 | 1014.8 |
| 20260508044133 | 17 | 78 | 1.6 | 4.8 | 0.00 | 0.00 | 0.00 | 35 | 1014.9 |
| 20260508043613 | 16 | 75 | 0.0 | 1.6 | 0.00 | 0.00 | 0.00 | 35 | 1014.9 |
| 20260508043135 | 16 | 68 | 0.0 | 1.6 | 0.00 | 0.00 | 0.00 | 35 | 1014.8 |
| 20260508042622 | 17 | 68 | 0.0 | 1.6 | 0.00 | 0.00 | 0.00 | 35 | 1014.8 |
| 20260508042123 | 17 | 68 | 0.0 | 1.6 | 0.00 | 0.00 | 0.00 | 34 | 1014.8 |
| 20260508041625 | 17 | 69 | 0.0 | 1.6 | 0.00 | 0.00 | 0.00 | 34 | 1014.8 |
| 20260508040624 | 17 | 63 | 0.0 | 3.2 | 0.00 | 0.00 | 0.00 | 33 | 1014.8 |
| 20260508040124 | 17 | 36 | 1.6 | 3.2 | 0.00 | 0.00 | 0.00 | 33 | 1014.8 |
| 20260508035618 | 17 | 31 | 0.0 | 3.2 | 0.00 | 0.00 | 0.00 | 35 | 1014.7 |
| 20260508035118 | 17 | 62 | 0.0 | 3.2 | 0.00 | 0.00 | 0.00 | 34 | 1014.6 |
| 20260508034619 | 17 | 52 | 0.0 | 3.2 | 0.00 | 0.00 | 0.00 | 34 | 1014.5 |
| 20260508034127 | 17 | 34 | 0.0 | 3.2 | 0.00 | 0.00 | 0.00 | 34 | 1014.5 |
| 20260508033629 | 17 | 77 | 0.0 | 1.6 | 0.00 | 0.00 | 0.00 | 34 | 1014.5 |
| 20260508033129 | 17 | 77 | 0.0 | 3.2 | 0.00 | 0.00 | 0.00 | 34 | 1014.5 |
| 20260508032637 | 17 | 77 | 0.0 | 3.2 | 0.00 | 0.00 | 0.00 | 34 | 1014.5 |
| 20260508031653 | 17 | 87 | 1.6 | 1.6 | 0.00 | 0.00 | 0.00 | 34 | 1014.5 |
| 20260508031115 | 17 | 64 | 0.0 | 1.6 | 0.00 | 0.00 | 0.00 | 35 | 1014.4 |
| 20260508030615 | 17 | 64 | 0.0 | 1.6 | 0.00 | 0.00 | 0.00 | 34 | 1014.3 |
| 20260508030123 | 18 | 63 | 0.0 | 3.2 | 0.00 | 0.00 | 0.00 | 34 | 1014.2 |
| 20260508025623 | 18 | 63 | 0.0 | 3.2 | 0.00 | 0.00 | 0.00 | 33 | 1014.2 |
| 20260508025123 | 18 | 354 | 0.0 | 4.8 | 0.00 | 0.00 | 0.00 | 32 | 1014.3 |
| 20260508024631 | 18 | 44 | 0.0 | 4.8 | 0.00 | 0.00 | 0.00 | 32 | 1014.2 |
| 20260508024112 | 19 | 63 | 1.6 | 3.2 | 0.00 | 0.00 | 0.00 | 31 | 1014.3 |
| 20260508023613 | 20 | 53 | 1.6 | 3.2 | 0.00 | 0.00 | 0.00 | 30 | 1014.2 |
| 20260508023115 | 20 | 271 | 0.0 | 1.6 | 0.00 | 0.00 | 0.00 | 29 | 1014.2 |
| 20260508022622 | 21 | 262 | 0.0 | 1.6 | 0.00 | 0.00 | 0.00 | 28 | 1014.2 |
| 20260508022122 | 21 | 262 | 0.0 | 1.6 | 0.00 | 0.00 | 0.00 | 28 | 1014.2 |
| 20260508021630 | 22 | 262 | 0.0 | 0.0 | 0.00 | 0.00 | 0.00 | 26 | 1014.2 |
| 20260508021131 | 22 | 262 | 0.0 | 1.6 | 0.00 | 0.00 | 0.00 | 26 | 1014.2 |
| 20260508020639 | 23 | 262 | 0.0 | 1.6 | 0.00 | 0.00 | 0.00 | 25 | 1014.1 |
| 20260508020119 | 23 | 262 | 0.0 | 1.6 | 0.00 | 0.00 | 0.00 | 25 | 1014.0 |
| 20260508015627 | 23 | 262 | 0.0 | 1.6 | 0.00 | 0.00 | 0.00 | 25 | 1014.0 |
| 20260508015127 | 23 | 316 | 0.0 | 4.8 | 0.00 | 0.00 | 0.00 | 25 | 1014.0 |
| 20260508014628 | 23 | 317 | 1.6 | 4.8 | 0.00 | 0.00 | 0.00 | 23 | 1014.0 |
| 20260508014118 | 23 | 349 | 1.6 | 4.8 | 0.00 | 0.00 | 0.00 | 23 | 1014.0 |
| 20260508013618 | 23 | 264 | 1.6 | 8.0 | 0.00 | 0.00 | 0.00 | 24 | 1014.2 |
| 20260508013119 | 23 | 254 | 3.2 | 8.0 | 0.00 | 0.00 | 0.00 | 23 | 1014.2 |
| 20260508012647 | 23 | 305 | 3.2 | 8.0 | 0.00 | 0.00 | 0.00 | 23 | 1014.2 |
| 20260508012126 | 23 | 282 | 4.8 | 8.0 | 0.00 | 0.00 | 0.00 | 24 | 1014.1 |
| 20260508011635 | 23 | 276 | 1.6 | 4.8 | 0.00 | 0.00 | 0.00 | 23 | 1014.1 |
| 20260508011137 | 24 | 274 | 3.2 | 4.8 | 0.00 | 0.00 | 0.00 | 23 | 1014.2 |
| 20260508010623 | 24 | 323 | 1.6 | 3.2 | 0.00 | 0.00 | 0.00 | 22 | 1014.2 |
| 20260508010122 | 24 | 277 | 0.0 | 3.2 | 0.00 | 0.00 | 0.00 | 22 | 1014.1 |
| 20260508005624 | 24 | 287 | 1.6 | 9.7 | 0.00 | 0.00 | 0.00 | 22 | 1014.1 |
| 20260508005112 | 24 | 252 | 1.6 | 4.8 | 0.00 | 0.00 | 0.00 | 22 | 1014.2 |
| 20260508004612 | 23 | 270 | 1.6 | 6.4 | 0.00 | 0.00 | 0.00 | 23 | 1014.2 |
| 20260508004113 | 23 | 205 | 3.2 | 11.3 | 0.00 | 0.00 | 0.00 | 23 | 1014.4 |
| 20260508003621 | 24 | 262 | 6.4 | 11.3 | 0.00 | 0.00 | 0.00 | 23 | 1014.4 |
| 20260508003122 | 24 | 254 | 1.6 | 8.0 | 0.00 | 0.00 | 0.00 | 23 | 1014.4 |
| 20260508002650 | 24 | 284 | 1.6 | 8.0 | 0.00 | 0.00 | 0.00 | 22 | 1014.4 |
| 20260508002130 | 23 | 302 | 0.0 | 6.4 | 0.00 | 0.00 | 0.00 | 23 | 1014.5 |
| 20260508001638 | 23 | 236 | 1.6 | 6.4 | 0.00 | 0.00 | 0.00 | 24 | 1014.5 |
| 20260508001118 | 22 | 144 | 1.6 | 4.8 | 0.00 | 0.00 | 0.00 | 23 | 1014.6 |
| 20260508000617 | 22 | 287 | 0.0 | 3.2 | 0.00 | 0.00 | 0.00 | 26 | 1014.6 |
| 20260508000123 | 22 | 313 | 1.6 | 6.4 | 0.00 | 0.00 | 0.00 | 25 | 1014.7 |
| 20260507235625 | 22 | 5 | 3.2 | 6.4 | 0.00 | 0.00 | 0.00 | 25 | 1014.7 |
| 20260507235126 | 22 | 249 | 3.2 | 8.0 | 0.00 | 0.00 | 0.00 | 25 | 1014.7 |
| 20260507234634 | 22 | 244 | 3.2 | 8.0 | 0.00 | 0.00 | 0.00 | 24 | 1014.8 |
| 20260507234136 | 22 | 259 | 1.6 | 8.0 | 0.00 | 0.00 | 0.00 | 24 | 1014.8 |
| 20260507233640 | 22 | 276 | 1.6 | 6.4 | 0.00 | 0.00 | 0.00 | 25 | 1014.9 |
| 20260507233119 | 22 | 288 | 3.2 | 6.4 | 0.00 | 0.00 | 0.00 | 24 | 1014.9 |
| 20260507232628 | 23 | 273 | 1.6 | 11.3 | 0.00 | 0.00 | 0.00 | 23 | 1015.0 |
| 20260507232149 | 23 | 229 | 3.2 | 9.7 | 0.00 | 0.00 | 0.00 | 23 | 1015.1 |
| 20260507231636 | 23 | 285 | 4.8 | 9.7 | 0.00 | 0.00 | 0.00 | 23 | 1015.1 |
| 20260507231117 | 23 | 297 | 1.6 | 6.4 | 0.00 | 0.00 | 0.00 | 24 | 1015.2 |
| 20260507230617 | 23 | 20 | 0.0 | 6.4 | 0.00 | 0.00 | 0.00 | 24 | 1015.2 |
| 20260507230124 | 23 | 293 | 0.0 | 8.0 | 0.00 | 0.00 | 0.00 | 23 | 1015.4 |
| 20260507225625 | 23 | 318 | 1.6 | 8.0 | 0.00 | 0.00 | 0.00 | 25 | 1015.5 |
| 20260507225126 | 22 | 89 | 0.0 | 9.7 | 0.00 | 0.00 | 0.00 | 26 | 1015.6 |
| 20260507224634 | 22 | 311 | 1.6 | 9.7 | 0.00 | 0.00 | 0.00 | 25 | 1015.8 |
| 20260507224135 | 23 | 290 | 3.2 | 9.7 | 0.00 | 0.00 | 0.00 | 25 | 1015.7 |
| 20260507223622 | 23 | 304 | 1.6 | 9.7 | 0.00 | 0.00 | 0.00 | 26 | 1015.8 |
| 20260507223142 | 23 | 294 | 4.8 | 12.9 | 0.00 | 0.00 | 0.00 | 25 | 1015.9 |
| 20260507222629 | 23 | 250 | 8.0 | 12.9 | 0.00 | 0.00 | 0.00 | 25 | 1016.0 |
| 20260507222130 | 23 | 355 | 1.6 | 12.9 | 0.00 | 0.00 | 0.00 | 26 | 1016.0 |
| 20260507221611 | 23 | 231 | 8.0 | 12.9 | 0.00 | 0.00 | 0.00 | 25 | 1016.0 |
| 20260507221119 | 23 | 264 | 4.8 | 11.3 | 0.00 | 0.00 | 0.00 | 25 | 1016.1 |
| 20260507220620 | 23 | 205 | 4.8 | 11.3 | 0.00 | 0.00 | 0.00 | 26 | 1016.0 |
| 20260507220127 | 22 | 288 | 4.8 | 14.5 | 0.00 | 0.00 | 0.00 | 26 | 1016.2 |
| 20260507215628 | 22 | 289 | 8.0 | 14.5 | 0.00 | 0.00 | 0.00 | 25 | 1016.3 |
| 20260507215135 | 22 | 258 | 4.8 | 12.9 | 0.00 | 0.00 | 0.00 | 26 | 1016.3 |
| 20260507214637 | 22 | 299 | 4.8 | 14.5 | 0.00 | 0.00 | 0.00 | 26 | 1016.4 |
| 20260507214116 | 22 | 321 | 4.8 | 16.1 | 0.00 | 0.00 | 0.00 | 25 | 1016.4 |
| 20260507213623 | 22 | 311 | 4.8 | 16.1 | 0.00 | 0.00 | 0.00 | 25 | 1016.5 |
| 20260507213125 | 22 | 304 | 6.4 | 24.1 | 0.00 | 0.00 | 0.00 | 25 | 1016.6 |
| 20260507212625 | 22 | 286 | 4.8 | 24.1 | 0.00 | 0.00 | 0.00 | 25 | 1016.7 |
| 20260507212133 | 22 | 265 | 4.8 | 9.7 | 0.00 | 0.00 | 0.00 | 25 | 1016.7 |
| 20260507211613 | 23 | 312 | 4.8 | 9.7 | 0.00 | 0.00 | 0.00 | 23 | 1016.8 |
| 20260507211142 | 23 | 243 | 3.2 | 16.1 | 0.00 | 0.00 | 0.00 | 25 | 1016.8 |
| 20260507210645 | 23 | 178 | 6.4 | 16.1 | 0.00 | 0.00 | 0.00 | 24 | 1017.0 |
| 20260507210115 | 22 | 238 | 6.4 | 16.1 | 0.00 | 0.00 | 0.00 | 25 | 1017.0 |
| 20260507205657 | 22 | 269 | 3.2 | 9.7 | 0.00 | 0.00 | 0.00 | 23 | 1017.0 |
| 20260507205117 | 22 | 272 | 0.0 | 8.0 | 0.00 | 0.00 | 0.00 | 22 | 1017.0 |
| 20260507204637 | 22 | 246 | 0.0 | 8.0 | 0.00 | 0.00 | 0.00 | 26 | 1017.2 |
| 20260507204123 | 22 | 311 | 4.8 | 11.3 | 0.00 | 0.00 | 0.00 | 24 | 1017.2 |
| 20260507203624 | 22 | 245 | 4.8 | 11.3 | 0.00 | 0.00 | 0.00 | 23 | 1017.2 |
| 20260507203125 | 22 | 245 | 3.2 | 9.7 | 0.00 | 0.00 | 0.00 | 25 | 1017.3 |
| 20260507202613 | 22 | 232 | 4.8 | 6.4 | 0.00 | 0.00 | 0.00 | 24 | 1017.4 |
| 20260507202113 | 22 | 308 | 3.2 | 9.7 | 0.00 | 0.00 | 0.00 | 24 | 1017.4 |
| 20260507201614 | 22 | 283 | 3.2 | 9.7 | 0.00 | 0.00 | 0.00 | 22 | 1017.5 |
| 20260507201122 | 22 | 240 | 3.2 | 6.4 | 0.00 | 0.00 | 0.00 | 24 | 1017.5 |
| 20260507200623 | 22 | 233 | 3.2 | 4.8 | 0.00 | 0.00 | 0.00 | 24 | 1017.5 |
| 20260507200150 | 22 | 138 | 0.0 | 9.7 | 0.00 | 0.00 | 0.00 | 22 | 1017.5 |
| 20260507195630 | 21 | 236 | 1.6 | 9.7 | 0.00 | 0.00 | 0.00 | 24 | 1017.6 |
| 20260507195111 | 21 | 265 | 4.8 | 9.7 | 0.00 | 0.00 | 0.00 | 25 | 1017.7 |
| 20260507194619 | 21 | 266 | 4.8 | 9.7 | 0.00 | 0.00 | 0.00 | 24 | 1017.7 |
| 20260507194120 | 21 | 243 | 3.2 | 4.8 | 0.00 | 0.00 | 0.00 | 23 | 1017.7 |
| 20260507193648 | 21 | 267 | 1.6 | 6.4 | 0.00 | 0.00 | 0.00 | 25 | 1017.8 |
| 20260507193128 | 21 | 266 | 3.2 | 11.3 | 0.00 | 0.00 | 0.00 | 23 | 1017.8 |
| 20260507192636 | 21 | 310 | 3.2 | 11.3 | 0.00 | 0.00 | 0.00 | 22 | 1017.9 |